Time,TemperatureF,DewpointF,PressureIn,WindDirection,WindDirectionDegrees,WindSpeedMPH,WindSpeedGustMPH,Humidity,HourlyPrecipIn,Conditions,Clouds,dailyrainin,SoftwareType,DateUTC
2013-10-12 00:14:00,57.0,50.0,30.04,SSE,161,2.0,-999.0,77,-99.99,,,-99.99,,2013-10-12 04:14:00,
2013-10-12 00:24:00,57.0,50.0,30.04,SSE,167,3.0,-999.0,78,-99.99,,,-99.99,,2013-10-12 04:24:00,
2013-10-12 00:44:00,56.0,49.0,30.04,SE,143,2.0,-999.0,78,-99.99,,,-99.99,,2013-10-12 04:44:00,
2013-10-12 00:54:00,55.0,49.0,30.04,SSE,147,1.0,-999.0,79,-99.99,,,-99.99,,2013-10-12 04:54:00,
2013-10-12 01:13:00,55.0,49.0,30.03,SE,133,1.0,-999.0,80,-99.99,,,-99.99,,2013-10-12 05:13:00,
2013-10-12 01:23:00,54.0,48.0,30.03,SE,145,1.0,-999.0,81,-99.99,,,-99.99,,2013-10-12 05:23:00,
2013-10-12 01:43:00,54.0,49.0,30.04,SE,145,0.0,-999.0,82,-99.99,,,-99.99,,2013-10-12 05:43:00,
2013-10-12 01:52:00,53.0,48.0,30.04,SE,145,0.0,-999.0,83,-99.99,,,-99.99,,2013-10-12 05:52:00,
2013-10-12 02:12:00,52.0,48.0,30.04,SE,145,0.0,-999.0,85,-99.99,,,-99.99,,2013-10-12 06:12:00,
2013-10-12 02:22:00,53.0,49.0,30.04,SE,145,0.0,-999.0,85,-99.99,,,-99.99,,2013-10-12 06:22:00,
2013-10-12 02:42:00,53.0,48.0,30.04,SE,145,0.0,-999.0,84,-99.99,,,-99.99,,2013-10-12 06:42:00,
2013-10-12 02:52:00,53.0,48.0,30.04,SE,145,0.0,-999.0,84,-99.99,,,-99.99,,2013-10-12 06:52:00,
2013-10-12 03:12:00,52.0,48.0,30.04,SE,145,0.0,-999.0,85,-99.99,,,-99.99,,2013-10-12 07:12:00,
2013-10-12 03:22:00,51.0,47.0,30.04,SE,145,0.0,-999.0,86,-99.99,,,-99.99,,2013-10-12 07:22:00,
2013-10-12 03:42:00,49.0,46.0,30.04,SE,145,0.0,-999.0,89,-99.99,,,-99.99,,2013-10-12 07:42:00,
2013-10-12 03:52:00,49.0,46.0,30.04,SE,145,0.0,-999.0,90,-99.99,,,-99.99,,2013-10-12 07:52:00,
2013-10-12 04:12:00,48.0,45.0,30.04,SE,145,0.0,-999.0,91,-99.99,,,-99.99,,2013-10-12 08:12:00,
2013-10-12 04:22:00,47.0,45.0,30.05,SE,145,0.0,-999.0,92,-99.99,,,-99.99,,2013-10-12 08:22:00,
2013-10-12 04:52:00,47.0,45.0,30.05,SE,145,0.0,-999.0,94,-99.99,,,-99.99,,2013-10-12 08:52:00,
2013-10-12 05:22:00,46.0,44.0,30.05,SE,145,0.0,-999.0,94,-99.99,,,-99.99,,2013-10-12 09:22:00,
2013-10-12 05:54:00,46.0,45.0,30.04,SE,145,0.0,-999.0,95,-99.99,,,-99.99,,2013-10-12 09:54:00,
2013-10-12 06:12:00,46.0,45.0,30.05,SE,145,0.0,-999.0,95,-99.99,,,-99.99,,2013-10-12 10:12:00,
2013-10-12 06:23:00,45.0,44.0,30.04,SE,145,0.0,-999.0,95,-99.99,,,-99.99,,2013-10-12 10:23:00,
2013-10-12 06:42:00,46.0,45.0,30.05,SE,145,0.0,-999.0,96,-99.99,,,-99.99,,2013-10-12 10:42:00,
2013-10-12 06:52:00,46.0,45.0,30.04,SE,145,0.0,-999.0,96,-99.99,,,-99.99,,2013-10-12 10:52:00,
2013-10-12 07:12:00,47.0,46.0,30.05,SE,145,0.0,-999.0,96,-99.99,,,-99.99,,2013-10-12 11:12:00,
2013-10-12 07:22:00,46.0,45.0,30.04,SE,145,0.0,-999.0,96,-99.99,,,-99.99,,2013-10-12 11:22:00,
2013-10-12 07:52:00,46.0,45.0,30.05,SE,145,0.0,-999.0,95,-99.99,,,-99.99,,2013-10-12 11:52:00,
2013-10-12 08:11:00,46.0,45.0,30.05,SE,145,0.0,-999.0,96,-99.99,,,-99.99,,2013-10-12 12:11:00,
2013-10-12 08:22:00,46.0,45.0,30.05,SE,145,0.0,-999.0,97,-99.99,,,-99.99,,2013-10-12 12:22:00,
2013-10-12 08:52:00,47.0,46.0,30.05,SE,145,0.0,-999.0,96,-99.99,,,-99.99,,2013-10-12 12:52:00,
2013-10-12 09:11:00,48.0,47.0,30.05,SE,145,0.0,-999.0,97,-99.99,,,-99.99,,2013-10-12 13:11:00,
2013-10-12 09:22:00,50.0,49.0,30.05,SE,145,0.0,-999.0,98,-99.99,,,-99.99,,2013-10-12 13:22:00,
2013-10-12 09:42:00,53.0,52.0,30.05,SE,145,0.0,-999.0,98,-99.99,,,-99.99,,2013-10-12 13:42:00,
2013-10-12 10:42:00,60.0,56.0,30.04,SSE,161,5.0,-999.0,88,-99.99,,,-99.99,,2013-10-12 14:42:00,
2013-10-12 10:52:00,61.0,56.0,30.04,SE,133,5.0,-999.0,85,-99.99,,,-99.99,,2013-10-12 14:52:00,
2013-10-12 11:11:00,62.0,56.0,30.03,SE,144,4.0,-999.0,82,-99.99,,,-99.99,,2013-10-12 15:11:00,
2013-10-12 11:22:00,64.0,57.0,30.03,South,169,3.0,-999.0,79,-99.99,,,-99.99,,2013-10-12 15:22:00,
2013-10-12 11:43:00,65.0,57.0,30.03,South,171,4.0,-999.0,75,-99.99,,,-99.99,,2013-10-12 15:43:00,
2013-10-12 11:53:00,66.0,56.0,30.03,SSW,205,2.0,-999.0,71,-99.99,,,-99.99,,2013-10-12 15:53:00,
2013-10-12 12:13:00,67.0,56.0,30.03,SSE,158,2.0,-999.0,67,-99.99,,,-99.99,,2013-10-12 16:13:00,
2013-10-12 12:23:00,67.0,58.0,30.03,NE,51,3.0,-999.0,73,-99.99,,,-99.99,,2013-10-12 16:23:00,
2013-10-12 12:43:00,64.0,59.0,30.03,NE,55,4.0,-999.0,83,-99.99,,,-99.99,,2013-10-12 16:43:00,
2013-10-12 12:53:00,63.0,58.0,30.03,ENE,67,4.0,-999.0,83,-99.99,,,-99.99,,2013-10-12 16:53:00,
2013-10-12 13:13:00,63.0,58.0,30.03,ENE,65,6.0,-999.0,84,-99.99,,,-99.99,,2013-10-12 17:13:00,
2013-10-12 13:23:00,64.0,59.0,30.02,NNE,32,5.0,-999.0,84,-99.99,,,-99.99,,2013-10-12 17:23:00,
2013-10-12 13:42:00,64.0,59.0,30.01,ENE,63,4.0,-999.0,84,-99.99,,,-99.99,,2013-10-12 17:42:00,
2013-10-12 13:53:00,64.0,59.0,30.00,ENE,62,6.0,-999.0,83,-99.99,,,-99.99,,2013-10-12 17:53:00,
2013-10-12 14:22:00,67.0,60.0,29.99,NE,49,4.0,-999.0,78,-99.99,,,-99.99,,2013-10-12 18:22:00,
2013-10-12 14:42:00,67.0,60.0,29.98,NE,49,5.0,-999.0,77,-99.99,,,-99.99,,2013-10-12 18:42:00,
2013-10-12 14:52:00,67.0,60.0,29.98,ENE,67,4.0,-999.0,77,-99.99,,,-99.99,,2013-10-12 18:52:00,
2013-10-12 15:22:00,68.0,59.0,29.97,East,88,5.0,-999.0,74,-99.99,,,-99.99,,2013-10-12 19:22:00,
2013-10-12 15:42:00,69.0,59.0,29.97,NE,39,3.0,-999.0,71,-99.99,,,-99.99,,2013-10-12 19:42:00,
2013-10-12 15:52:00,70.0,60.0,29.96,East,97,4.0,-999.0,71,-99.99,,,-99.99,,2013-10-12 19:52:00,
2013-10-12 16:22:00,70.0,60.0,29.96,NE,52,4.0,-999.0,71,-99.99,,,-99.99,,2013-10-12 20:22:00,
2013-10-12 16:52:00,71.0,60.0,29.95,ENE,59,3.0,-999.0,69,-99.99,,,-99.99,,2013-10-12 20:52:00,
2013-10-12 17:11:00,76.0,58.0,29.94,SSE,150,6.0,-999.0,53,-99.99,,,-99.99,,2013-10-12 21:11:00,
2013-10-12 17:22:00,77.0,59.0,29.94,SSE,161,7.0,-999.0,54,-99.99,,,-99.99,,2013-10-12 21:22:00,
2013-10-12 17:43:00,76.0,60.0,29.94,South,178,4.0,-999.0,58,-99.99,,,-99.99,,2013-10-12 21:43:00,
2013-10-12 17:54:00,75.0,60.0,29.94,SE,136,6.0,-999.0,60,-99.99,,,-99.99,,2013-10-12 21:54:00,
2013-10-12 18:13:00,75.0,61.0,29.94,SE,146,5.0,-999.0,62,-99.99,,,-99.99,,2013-10-12 22:13:00,
2013-10-12 18:24:00,74.0,61.0,29.94,SSE,157,4.0,-999.0,64,-99.99,,,-99.99,,2013-10-12 22:24:00,
2013-10-12 18:54:00,73.0,59.0,29.95,SSE,155,4.0,-999.0,62,-99.99,,,-99.99,,2013-10-12 22:54:00,
2013-10-12 19:12:00,72.0,58.0,29.95,South,171,6.0,-999.0,61,-99.99,,,-99.99,,2013-10-12 23:12:00,
2013-10-12 19:22:00,72.0,58.0,29.96,SE,135,4.0,-999.0,61,-99.99,,,-99.99,,2013-10-12 23:22:00,
2013-10-12 19:42:00,71.0,57.0,29.96,SE,141,4.0,-999.0,62,-99.99,,,-99.99,,2013-10-12 23:42:00,
2013-10-12 19:52:00,70.0,57.0,29.96,SSE,153,4.0,-999.0,64,-99.99,,,-99.99,,2013-10-12 23:52:00,
2013-10-12 20:12:00,70.0,58.0,29.97,SSE,155,3.0,-999.0,65,-99.99,,,-99.99,,2013-10-13 00:12:00,
2013-10-12 20:22:00,69.0,57.0,29.97,SSE,159,3.0,-999.0,66,-99.99,,,-99.99,,2013-10-13 00:22:00,
2013-10-12 20:42:00,69.0,58.0,29.98,SSE,167,4.0,-999.0,67,-99.99,,,-99.99,,2013-10-13 00:42:00,
2013-10-12 20:52:00,68.0,57.0,29.98,SSE,159,3.0,-999.0,68,-99.99,,,-99.99,,2013-10-13 00:52:00,
2013-10-12 21:12:00,68.0,57.0,29.97,SSE,163,3.0,-999.0,69,-99.99,,,-99.99,,2013-10-13 01:12:00,
2013-10-12 21:22:00,68.0,57.0,29.97,SSE,157,4.0,-999.0,68,-99.99,,,-99.99,,2013-10-13 01:22:00,
2013-10-12 21:42:00,68.0,56.0,29.97,SE,144,4.0,-999.0,65,-99.99,,,-99.99,,2013-10-13 01:42:00,
2013-10-12 21:52:00,68.0,55.0,29.98,SSE,159,4.0,-999.0,64,-99.99,,,-99.99,,2013-10-13 01:52:00,
2013-10-12 22:12:00,68.0,56.0,29.98,SE,143,4.0,-999.0,65,-99.99,,,-99.99,,2013-10-13 02:12:00,
2013-10-12 22:22:00,67.0,55.0,29.98,SSE,151,4.0,-999.0,66,-99.99,,,-99.99,,2013-10-13 02:22:00,
2013-10-12 22:42:00,66.0,55.0,29.98,SSE,151,4.0,-999.0,67,-99.99,,,-99.99,,2013-10-13 02:42:00,
2013-10-12 22:52:00,66.0,55.0,29.98,SE,141,5.0,-999.0,68,-99.99,,,-99.99,,2013-10-13 02:52:00,
2013-10-12 23:12:00,65.0,55.0,30.01,WSW,240,6.0,-999.0,70,-99.99,,,-99.99,,2013-10-13 03:12:00,
2013-10-12 23:23:00,66.0,56.0,30.01,SSW,211,4.0,-999.0,69,-99.99,,,-99.99,,2013-10-13 03:23:00,
2013-10-12 23:45:00,66.0,56.0,30.01,SW,214,4.0,-999.0,69,-99.99,,,-99.99,,2013-10-13 03:45:00,
2013-10-12 23:54:00,65.0,55.0,30.01,South,178,1.0,-999.0,71,-99.99,,,-99.99,,2013-10-13 03:54:00,